Location: Unspecified
(0.0000°N, 0.0000°E)
Time: 12:50:51
(UTC+02:00)

Atlas Centaur 2 - Visible Passes

Search period start: 24 July 2017 00:00
Search period end: 03 August 2017 00:00
Orbit: 459 x 1313 km, 30.4° (Epoch: 23 July)

Date Brightness Start Highest point End Pass type
(mag) Time Alt. Az. Time Alt. Az. Time Alt. Az.
31 Jul 4.2 21:09:30 10° S 21:11:21 11° SSE 21:12:05 11° SSE visible
01 Aug 4.0 21:04:32 10° SSW 21:08:23 15° SSE 21:09:42 15° SE visible
02 Aug 3.7 21:00:14 10° SSW 21:05:22 21° SSE 21:07:25 18° SE visible
02 Aug 4.6 22:48:51 10° SW 22:50:07 16° SW 22:50:07 16° SW visible
